Location: Unspecified
(17.6330°N, 0.0000°E)
Time: 01:32:11
(UTC+00:00)

Transit 2A - All Passes

Search period start: 18 June 2019 00:00
Search period end: 28 June 2019 00:00
Orbit: 593 x 966 km, 66.7° (Epoch: 16 June)

Date Brightness Start Highest point End Pass type
(mag) Time Alt. Az. Time Alt. Az. Time Alt. Az.
18 Jun - 00:51:44 10° SW 00:57:31 43° WNW 01:03:33 10° N visible
18 Jun - 09:55:05 10° NE 09:57:05 12° ENE 09:59:00 10° E daylight
18 Jun - 11:35:43 10° NW 11:40:27 42° WSW 11:44:46 10° S daylight
18 Jun - 22:38:42 10° ESE 22:40:46 12° ESE 22:42:51 10° E night (unlit)
19 Jun - 00:17:18 10° SSW 00:23:23 66° WNW 00:29:44 10° NNE visible
19 Jun - 11:01:23 10° NNW 11:06:26 75° WSW 11:11:00 10° SSE daylight
19 Jun - 23:43:10 10° SSW 23:49:18 82° ESE 23:55:41 10° NNE visible
20 Jun - 01:31:43 10° WNW 01:33:01 11° WNW 01:34:18 10° NW visible
20 Jun - 10:27:20 10° NNW 10:32:22 63° ENE 10:36:54 10° SSE daylight
20 Jun - 23:09:19 10° S 23:15:15 53° ESE 23:21:26 10° NNE visible
21 Jun - 00:54:45 10° W 00:58:40 17° WNW 01:02:40 10° NNW visible
21 Jun - 09:53:33 10° N 09:58:14 36° ENE 10:02:29 10° SE daylight
21 Jun - 11:38:59 10° W 11:40:50 12° WSW 11:42:37 10° SW daylight
21 Jun - 22:35:50 10° S 22:41:16 34° ESE 22:46:54 10° NE visible
22 Jun - 00:19:19 10° WSW 00:24:25 26° WNW 00:29:36 10° N visible
22 Jun - 09:20:06 10° NNE 09:24:00 22° ENE 09:27:38 10° ESE daylight
22 Jun - 11:03:15 10° WNW 11:06:56 21° WSW 11:10:23 10° SSW daylight
22 Jun - 22:02:45 10° SSE 22:07:18 22° ESE 22:11:58 10° ENE visible
22 Jun - 23:44:27 10° SW 23:50:12 39° WNW 23:56:07 10° N visible
23 Jun - 08:47:19 10° NNE 08:49:43 13° ENE 08:52:01 10° E daylight
23 Jun - 10:28:27 10° NW 10:33:00 37° WSW 10:37:10 10° S daylight
23 Jun - 21:30:33 10° SE 21:33:22 13° ESE 21:36:14 10° ENE night (unlit)
23 Jun - 23:09:57 10° SSW 23:16:02 60° WNW 23:22:21 10° NNE visible
24 Jun - 09:54:03 10° NNW 09:59:00 66° WSW 10:03:29 10° SSE daylight
24 Jun - 22:35:46 10° SSW 22:41:57 89° ESE 22:48:22 10° NNE visible
25 Jun - 09:19:57 10° NNW 09:24:57 71° ENE 09:29:28 10° SSE daylight
25 Jun - 22:01:52 10° S 22:07:54 58° ESE 22:14:09 10° NNE visible
25 Jun - 23:47:47 10° W 23:51:22 16° WNW 23:55:00 10° NNW visible
26 Jun - 08:46:06 10° N 08:50:49 40° ENE 08:55:07 10° SE daylight
26 Jun - 10:32:42 10° W 10:33:22 10° WSW 10:34:02 10° WSW daylight
26 Jun - 21:28:16 10° S 21:33:54 37° ESE 21:39:40 10° NE visible
26 Jun - 23:12:11 10° WSW 23:17:05 24° WNW 23:22:06 10° N visible
27 Jun - 08:12:35 10° N 08:16:37 24° ENE 08:20:21 10° ESE daylight
27 Jun - 09:56:08 10° WNW 09:59:28 19° WSW 10:02:37 10° SSW daylight
27 Jun - 20:55:05 10° SSE 20:59:55 24° ESE 21:04:52 10° NE visible
27 Jun - 22:37:13 10° SW 22:42:52 36° WNW 22:48:40 10° N visible
